sat.trackr.live / text

‹ back to catalog

STARLINK-5296

NORAD 55312 · 2023-010AV

PAYLOAD ACTIVE UNKNOWN

§ Identity

Operator
Country
US
Launch date
2023-01-19
Launch site
AFWTR
Launch vehicle
Mass (kg)
RCS (m²)

Purposes: comms

External: N2YO · Heavens-Above · Gunter

§ Orbital elements

Epoch: 2026-05-25T03:04:02.211168Z

Period
96.11 min
Inclination
69.9986°
Eccentricity
0.0003647
Mean motion
14.98331041 rev/d
Perigee alt
569.5 km
Apogee alt
574.6 km
Semi-major
6,950.2 km
B*
4.4801e-5
RAAN
171.5476°
Arg perigee
266.7924°
Mean anomaly
93.2818°
Rev number
18,608

§ Raw data

STARLINK-52961 55312U 23010AV  26145.12780337  .00000442  00000+0  44801-4 0  99912 55312  69.9986 171.5476 0003647 266.7924  93.2818 14.98331041186080

JSON: /api/v1/satellites/55312 · /tle

For live sub-satellite position, see the globe view (requires WebGL).

§ Visibility from observer

Set your observer location to see the next 7 days of passes ≥ 10°. The values pass through the URL so the page stays shareable.

No JS? Fill the form by hand. The geolocation button needs JavaScript.